Home   Weather   Selkirk   Past weeks

Flag for Canada Past Weather in Selkirk, Manitoba, Canada — Yesterday and Last 2 Weeks

Now
34 °F

Chilly.


Feels Like: 34 °F
Forecast: 22 / 32 °F
Wind: 1 mph from Northeast

Location: Winnipeg The Forks Man

Current Time: Feb 21, 2017 at 10:15:27 pm

Latest Report: Feb 21, 2017 at 9:00 pm


Visibility: N/A

Pressure: 29.74 "Hg

Humidity: 90%

Dew Point: 31 °F

Location of SelkirkLocation

Past Weather in Selkirk — Graph

°F

Selkirk Temperature Yesterday

Maximum temperature yesterday: 41 °F (at 4:00 am)
Minimum temperature yesterday: 33 °F (at 5:00 pm)
Average temperature yesterday: 37 °F

High & Low Weather Summary for the Past Weeks

 TemperatureHumidityPressure
High43 °F (Feb 17, 5:00 pm)96% (Feb 20, 5:00 pm)30.21 "Hg (Feb 20, 5:00 pm)
Low-12 °F (Feb 8, 8:00 am)46% (Feb 14, 8:00 am)29.26 "Hg (Feb 17, 2:00 pm)
Average22 °F74%29.81 "Hg
* Reported Feb 6 9:00 pm — Feb 21 9:00 pm, Selkirk, Weather by CustomWeather, © 2017

Note: Actual official high and low records may vary slightly from our data, if they occured in-between our weather recording intervals... More about our weather records

Advertising

Selkirk Weather History for the Previous 24 Hours

Scroll right to see more
 ConditionsComfort  
Time TempWeatherWind HumidityBarometerVisibility
9:00 pm
Tue, Feb 21
34 °FChilly.1 mph90%29.74 "HgN/A
8:00 pm34 °FChilly.1 mph90%29.73 "HgN/A
7:00 pm34 °FChilly.2 mph90%29.72 "HgN/A
6:00 pm35 °FChilly.2 mph89%29.72 "HgN/A
5:00 pm35 °FChilly.3 mph87%29.72 "HgN/A
4:00 pm36 °FChilly.2 mph84%29.71 "HgN/A
3:00 pm37 °FChilly.1 mph80%29.72 "HgN/A
2:00 pm38 °FChilly.1 mph80%29.71 "HgN/A
1:00 pm37 °FChilly.1 mph85%29.72 "HgN/A
12:00 pm36 °FChilly.2 mph84%29.73 "HgN/A
11:00 am35 °FChilly.2 mph89%29.74 "HgN/A
10:00 am33 °FChilly.3 mph95%29.73 "HgN/A
9:00 am34 °FChilly.3 mph90%29.73 "HgN/A
8:00 am34 °FChilly.2 mph87%29.75 "HgN/A
7:00 am33 °FChilly.3 mph90%29.74 "HgN/A
6:00 am34 °FChilly.2 mph87%29.74 "HgN/A
5:00 am34 °FChilly.2 mph87%29.72 "HgN/A
4:00 am33 °FChilly.3 mph89%29.73 "HgN/A
3:00 am33 °FChilly.3 mph89%29.73 "HgN/A
2:00 am34 °FChilly.2 mph87%29.72 "HgN/A
1:00 am34 °FChilly.3 mph88%29.70 "HgN/A
12:00 am33 °FChilly.3 mph89%29.71 "HgN/A
11:00 pm
Mon, Feb 20
34 °FChilly.3 mph87%29.70 "HgN/A
10:00 pm33 °FChilly.5 mph90%29.69 "HgN/A
Weather by CustomWeather, © 2017

See weather overviewHow to use our weather pages